Temp
-7 -6 -6 -6 -7 -7 -7 -7 -7 -6 -6 -6 -6 -6 -5 -5 -5 -5 -4 -4 -4 -4 -4 -4 -5 -4 -5 -5 -5 -5 -5 -5 -5 -5 -4 -4 -4 -3 -3 -3 -3 -3 -4 -3 -4
-6 -6 -6 -6 -6 -7 -7 -7 -7 -7 -6 -6 -6 -5 -5 -5 -6 -5 -5 -5 -4 -4 -4 -4 -4 -4 -5 -5 -5 -4 -4 -5 -5 -4 -4 -4 -4 -3 -3 -3 -3 -3 -4 -4 -4
-6 -6 -6 -6 -6 -6 -6 -6 -6 -6 -6 -6 -5 -5 -6 -6 -6 -6 -6 -4 -4 -5 -4 -4 -4 -4 -4 -5 -4 -4 -5 -5 -5 -4 -4 -4 -3 -3 -3 -3 -3 -4 -4 -4 -4
-5 -5 -5 -5 -6 -6 -6 -6 -6 -6 -5 -6 -5 -5 -6 -6 -6 -5 -5 -5 -5 -5 -4 -4 -4 -4 -4 -4 -4 -4 -4 -5 -4 -4 -4 -4 -4 -4 -4 -4 -3 -3 -4 -4 -4
-4 -4 -5 -5 -5 -5 -5 -5 -5 -6 -5 -5 -5 -5 -5 -6 -5 -5 -5 -5 -5 -6 -5 -5 -5 -4 -4 -5 -5 -5 -5 -5 -5 -5 -5 -5 -5 -5 -5 -4 -4 -4 -4 -4 -4
-4 -4 -4 -4 -4 -5 -5 -5 -4 -4 -5 -4 -4 -5 -5 -5 -5 -5 -5 -4 -5 -5 -5 -5 -4 -5 -5 -5 -5 -5 -5 -4 -5 -5 -5 -5 -6 -5 -5 -5 -5 -4 -4 -4 -4
-3 -3 -3 -3 -4 -4 -4 -4 -3 -4 -4 -4 -4 -4 -4 -5 -5 -5 -5 -5 -4 -4 -4 -4 -4 -5 -5 -4 -4 -4 -4 -4 -4 -4 -4 -5 -5 -5 -5 -5 -5 -4 -4 -4 -4
-3 -2 -2 -2 -2 -3 -3 -3 -2 -2 -3 -3 -3 -3 -3 -4 -4 -3 -4 -3 -3 -3 -4 -4 -4 -5 -4 -4 -4 -4 -4 -4 -4 -4 -4 -5 -5 -4 -5 -5 -5 -5 -5 -4 -4
-2 -2 -2 -2 -2 -2 -2 -2 -2 -2 -2 -2 -2 -2 -2 -3 -3 -3 -3 -3 -3 -4 -4 -4 -4 -3 -3 -3 -4 -4 -4 -4 -4 -5 -5 -5 -5 -5 -5 -5 -5 -5 -6 -5 -4
-2 -2 -2 -2 -2 -2 -2 -2 -2 -2 -2 -2 -2 -2 -2 -2 -3 -2 -2 -2 -3 -3 -4 -4 -4 -2 -3 -3 -4 -4 -4 -4 -4 -4 -5 -4 -5 -5 -5 -6 -6 -6 -6 -5 -5
-2 -2 -2 -2 -2 -2 -2 -2 -2 -2 -2 -2 -2 -2 -2 -3 -3 -3 -3 -3 -3 -3 -3 -4 -3 -3 -4 -4 -4 -5 -4 -4 -4 -4 -5 -5 -5 -5 -6 -6 -6 -6 -6 -6 -5
-2 -2 -2 -2 -2 -2 -2 -2 -2 -2 -1 -2 -1 -2 -1 -1 -2 -2 -3 -3 -3 -3 -4 -4 -3 -3 -3 -4 -4 -5 -5 -4 -4 -4 -4 -5 -5 -5 -6 -6 -6 -6 -6 -6 -5
-2 -2 -2 -2 -2 -2 -2 -2 -2 -2 -1 -1 -1 -1 -1 -2 -2 -2 -2 -3 -3 -2 -3 -4 -3 -3 -2 -3 -4 -5 -5 -5 -5 -5 -4 -4 -5 -5 -5 -6 -5 -5 -6 -6 -6
-3 -2 -2 -2 -2 -2 -2 -2 -2 -2 -2 -2 -1 -1 -2 -2 -2 -2 -2 -2 -2 -3 -3 -3 -3 -3 -2 -3 -3 -5 -5 -5 -6 -5 -5 -4 -4 -4 -5 -6 -6 -6 -6 -6 -6
-3 -2 -2 -2 -2 -2 -2 -2 -2 -2 -2 -2 -1 -2 -2 -1 -2 -2 -2 -2 -3 -3 -3 -4 -4 -3 -3 -4 -3 -5 -6 -6 -6 -6 -6 -5 -4 -5 -5 -6 -6 -6 -6 -6 -6
-3 -3 -2 -2 -2 -2 -2 -2 -2 -2 -2 -2 -2 -2 -2 -2 -2 -2 -2 -2 -2 -2 -2 -3 -4 -3 -4 -5 -5 -5 -7 -7 -6 -6 -6 -6 -5 -5 -5 -5 -6 -6 -6 -6 -6
-3 -3 -3 -2 -3 -2 -2 -2 -3 -3 -3 -2 -2 -2 -2 -2 -2 -2 -2 -2 -2 -3 -3 -4 -4 -4 -4 -5 -5 -6 -7 -7 -7 -6 -6 -6 -5 -5 -6 -6 -6 -6 -6 -6 -6
-4 -4 -3 -3 -3 -3 -3 -2 -3 -3 -3 -3 -3 -3 -3 -3 -3 -3 -2 -3 -3 -3 -3 -3 -4 -4 -4 -5 -6 -8 -8 -8 -8 -7 -6 -6 -5 -5 -5 -6 -6 -6 -6 -6 -6
-5 -5 -4 -4 -4 -4 -4 -4 -4 -4 -4 -4 -4 -4 -3 -3 -3 -3 -3 -4 -4 -4 -3 -4 -4 -4 -5 -5 -5 -6 -8 -8 -8 -8 -8 -7 -6 -5 -6 -6 -7 -7 -7 -6 -6
-5 -5 -5 -5 -5 -5 -4 -5 -5 -6 -5 -5 -5 -5 -5 -5 -5 -5 -4 -5 -5 -4 -4 -4 -4 -4 -4 -5 -6 -6 -7 -8 -8 -8 -7 -7 -6 -6 -6 -6 -7 -7 -7 -6 -6
-6 -6 -6 -6 -6 -5 -5 -5 -6 -7 -7 -6 -6 -6 -6 -6 -6 -6 -6 -6 -6 -5 -5 -6 -5 -5 -5 -5 -6 -7 -8 -8 -8 -8 -7 -7 -7 -7 -7 -7 -7 -7 -7 -7 -6
-6 -6 -6 -6 -6 -6 -6 -6 -7 -7 -8 -7 -7 -7 -7 -7 -7 -7 -7 -7 -7 -7 -7 -7 -6 -7 -6 -8 -7 -8 -8 -8 -8 -8 -8 -8 -7 -7 -7 -7 -7 -7 -7 -7 -7
-7 -7 -7 -7 -7 -7 -7 -7 -7 -7 -7 -8 -8 -8 -8 -8 -8 -7 -8 -8 -8 -8 -7 -7 -7 -7 -8 -8 -7 -8 -8 -8 -8 -8 -8 -8 -8 -7 -7 -7 -7 -6 -7 -7 -7
-8 -8 -8 -7 -7 -7 -7 -7 -8 -8 -8 -8 -8 -8 -8 -8 -8 -8 -8 -9 -8 -8 -8 -8 -8 -8 -8 -8 -8 -8 -8 -8 -8 -8 -8 -8 -8 -8 -8 -8 -8 -7 -7 -7 -7
-8 -8 -8 -8 -8 -7 -7 -8 -8 -8 -8 -8 -8 -8 -8 -8 -9 -8 -9 -9 -9 -9 -8 -8 -8 -8 -8 -8 -8 -8 -8 -8 -8 -8 -8 -7 -8 -8 -8 -7 -8 -8 -8 -7 -8
-9 -8 -8 -8 -8 -8 -8 -8 -8 -8 -8 -8 -8 -8 -8 -8 -8 -9 -9 -9 -9 -9 -9 -9 -9 -9 -9 -9 -9 -8 -8 -8 -8 -8 -8 -8 -8 -8 -7 -8 -8 -8 -8 -8 -8
-9 -9 -8 -8 -8 -8 -8 -8 -8 -8 -8 -8 -8 -8 -8 -8 -8 -8 -9 -9 -9 -10 -9 -10 -9 -9 -9 -9 -9 -9 -9 -9 -9 -8 -8 -8 -8 -8 -8 -8 -8 -8 -8 -8 -8
Height
5903 5904 5906 5907 5907 5908 5908 5909 5910 5912 5913 5914 5915 5916 5917 5917 5918 5919 5920 5923 5923 5925 5928 5930 5933 5935 5937 5938 5938 5941 5943 5944 5945 5945 5945 5945 5944 5943 5941 5940 5940 5940 5940 5939 5939
5905 5906 5908 5909 5908 5910 5910 5912 5913 5914 5916 5917 5917 5918 5919 5919 5920 5921 5923 5924 5925 5928 5930 5933 5935 5936 5938 5940 5941 5943 5944 5945 5946 5947 5946 5946 5946 5945 5943 5942 5942 5941 5941 5942 5941
5907 5908 5910 5910 5911 5912 5913 5914 5915 5917 5918 5919 5920 5920 5921 5922 5922 5923 5924 5925 5927 5931 5934 5936 5937 5939 5941 5942 5944 5945 5945 5945 5945 5945 5946 5946 5946 5945 5943 5943 5943 5943 5942 5942 5942
5908 5909 5911 5912 5913 5914 5915 5916 5918 5919 5920 5921 5922 5923 5924 5926 5928 5927 5927 5929 5929 5933 5936 5938 5940 5942 5943 5945 5946 5948 5947 5947 5947 5948 5949 5950 5949 5948 5946 5945 5944 5943 5943 5942 5942
5911 5912 5913 5914 5915 5915 5917 5918 5919 5921 5922 5923 5924 5926 5927 5928 5930 5931 5931 5931 5933 5934 5936 5940 5941 5943 5945 5948 5950 5951 5951 5950 5950 5951 5950 5950 5949 5946 5945 5945 5944 5943 5943 5944 5943
5913 5913 5914 5915 5917 5917 5918 5919 5920 5922 5923 5925 5926 5928 5929 5931 5931 5934 5934 5936 5937 5937 5939 5941 5944 5946 5949 5949 5951 5952 5953 5953 5951 5950 5949 5949 5949 5947 5945 5944 5943 5942 5943 5943 5944
5914 5915 5916 5917 5918 5919 5920 5921 5921 5923 5925 5927 5929 5930 5931 5934 5934 5935 5937 5938 5939 5941 5942 5944 5946 5948 5949 5951 5951 5952 5953 5953 5952 5951 5950 5949 5948 5947 5946 5944 5942 5941 5941 5940 5941
5916 5917 5917 5918 5919 5921 5922 5923 5925 5926 5927 5929 5931 5933 5934 5935 5936 5936 5938 5939 5941 5943 5944 5946 5947 5947 5949 5951 5951 5952 5953 5953 5952 5951 5950 5949 5948 5946 5945 5943 5941 5941 5940 5939 5939
5918 5919 5919 5920 5922 5923 5924 5925 5926 5928 5929 5930 5932 5934 5936 5937 5938 5939 5940 5941 5943 5945 5946 5946 5948 5949 5950 5952 5953 5954 5954 5953 5952 5951 5950 5950 5948 5947 5945 5944 5942 5940 5940 5939 5938
5918 5919 5921 5922 5923 5924 5926 5927 5928 5929 5931 5932 5933 5937 5937 5939 5940 5942 5943 5943 5944 5945 5947 5948 5948 5948 5950 5951 5953 5952 5952 5954 5952 5952 5950 5949 5948 5946 5944 5943 5942 5941 5939 5938 5937
5917 5919 5920 5921 5923 5925 5925 5926 5928 5929 5930 5932 5933 5935 5936 5938 5939 5941 5942 5944 5945 5946 5946 5947 5948 5948 5947 5949 5950 5951 5950 5950 5950 5951 5949 5948 5947 5946 5943 5943 5942 5941 5940 5936 5935
5915 5917 5919 5920 5921 5923 5924 5925 5927 5929 5929 5930 5932 5933 5934 5936 5937 5939 5941 5943 5943 5944 5946 5947 5945 5947 5946 5946 5948 5949 5949 5950 5949 5949 5948 5947 5946 5945 5943 5941 5941 5941 5939 5937 5933
5912 5914 5917 5918 5920 5921 5922 5924 5925 5927 5929 5930 5931 5932 5934 5936 5937 5937 5938 5939 5939 5941 5943 5943 5944 5944 5944 5944 5945 5946 5947 5947 5947 5945 5946 5945 5944 5942 5942 5941 5940 5940 5938 5935 5932
5907 5909 5913 5915 5918 5918 5920 5921 5923 5925 5926 5929 5929 5930 5932 5933 5934 5935 5936 5938 5938 5939 5940 5942 5941 5942 5942 5942 5943 5943 5943 5944 5944 5943 5942 5943 5945 5941 5938 5938 5938 5937 5935 5933 5930
5903 5905 5907 5910 5913 5915 5917 5918 5920 5922 5923 5925 5926 5927 5928 5931 5930 5933 5932 5934 5936 5936 5938 5940 5938 5939 5941 5940 5940 5941 5940 5940 5940 5939 5938 5939 5939 5939 5936 5935 5935 5934 5932 5930 5928
5898 5901 5903 5906 5907 5910 5911 5913 5916 5919 5918 5920 5921 5923 5925 5926 5927 5929 5930 5931 5932 5932 5934 5934 5933 5934 5937 5936 5936 5937 5938 5937 5936 5936 5936 5935 5935 5935 5932 5933 5932 5931 5930 5929 5926
5891 5893 5897 5900 5902 5903 5905 5908 5911 5912 5913 5914 5916 5917 5919 5921 5922 5923 5924 5926 5927 5927 5929 5929 5928 5929 5930 5931 5932 5932 5934 5933 5933 5933 5933 5932 5931 5931 5928 5927 5927 5927 5928 5926 5923
5883 5885 5889 5892 5894 5896 5899 5903 5905 5905 5906 5908 5910 5911 5912 5915 5915 5917 5918 5919 5920 5921 5922 5922 5924 5924 5925 5927 5928 5928 5929 5930 5928 5930 5930 5929 5928 5930 5926 5924 5923 5923 5923 5921 5918
5876 5878 5881 5884 5886 5888 5892 5895 5897 5898 5900 5901 5903 5904 5905 5907 5910 5910 5911 5913 5913 5915 5917 5916 5918 5917 5919 5920 5920 5919 5922 5926 5925 5925 5924 5925 5925 5926 5922 5922 5920 5919 5918 5917 5914
5870 5872 5874 5877 5878 5881 5884 5888 5889 5891 5892 5894 5896 5898 5898 5900 5902 5904 5905 5908 5908 5909 5909 5910 5911 5911 5912 5913 5913 5915 5919 5920 5921 5919 5919 5920 5920 5921 5920 5919 5917 5915 5914 5912 5910
5862 5864 5867 5869 5870 5873 5877 5880 5880 5882 5884 5887 5888 5891 5891 5893 5895 5897 5901 5902 5902 5904 5904 5906 5907 5909 5908 5909 5911 5911 5913 5915 5916 5916 5915 5914 5915 5917 5917 5915 5914 5911 5909 5907 5905
5853 5856 5857 5859 5863 5865 5868 5871 5873 5873 5876 5879 5881 5883 5885 5887 5889 5892 5896 5897 5899 5900 5901 5901 5902 5904 5904 5905 5904 5904 5906 5909 5910 5911 5911 5910 5909 5910 5911 5910 5908 5907 5905 5903 5901
5843 5846 5849 5851 5853 5855 5858 5860 5863 5866 5869 5872 5875 5876 5877 5880 5884 5885 5889 5891 5894 5896 5896 5897 5897 5900 5901 5901 5901 5901 5903 5904 5906 5906 5906 5905 5905 5905 5904 5903 5902 5902 5901 5900 5897
5836 5839 5841 5843 5845 5847 5849 5851 5854 5858 5861 5864 5868 5868 5870 5872 5874 5880 5883 5884 5887 5889 5890 5890 5891 5893 5896 5898 5897 5897 5899 5900 5900 5900 5900 5900 5899 5900 5898 5897 5897 5897 5896 5894 5892
5829 5832 5834 5836 5838 5840 5841 5844 5846 5848 5852 5856 5858 5860 5861 5864 5866 5870 5874 5876 5878 5880 5883 5884 5886 5887 5888 5890 5891 5892 5893 5894 5894 5895 5895 5896 5893 5893 5890 5891 5891 5890 5889 5889 5887
5823 5826 5827 5829 5830 5833 5834 5836 5837 5840 5843 5846 5849 5850 5854 5859 5859 5863 5864 5867 5870 5871 5873 5874 5876 5877 5878 5879 5882 5884 5885 5887 5887 5887 5887 5887 5887 5885 5883 5883 5883 5883 5882 5883 5880
5817 5819 5820 5822 5824 5826 5828 5829 5829 5832 5835 5837 5840 5842 5844 5847 5849 5852 5854 5857 5860 5862 5864 5865 5866 5866 5867 5870 5871 5873 5877 5877 5879 5879 5879 5880 5880 5879 5878 5876 5876 5875 5875 5874 5873
Wind_Speed
12 11 12 12 11 13 16 19 19 16 14 12 10 10 10 10 10 10 12 15 17 18 19 20 19 15 12 10 13 11 10 11 9 6 6 5 6 8 9 10 8 9 9 11 11
12 12 14 15 13 15 17 18 17 14 13 12 11 11 12 13 12 13 12 15 18 18 20 20 17 14 10 10 15 11 12 9 7 4 2 1 0 2 8 9 7 8 7 5 8
15 15 15 15 14 15 13 12 13 12 12 12 13 14 14 15 17 18 16 21 18 18 18 17 14 13 13 15 16 16 15 11 9 6 5 3 3 3 4 6 6 5 5 4 4
16 16 16 14 13 13 13 12 13 13 13 13 13 15 17 19 21 19 18 22 19 22 20 16 16 15 11 12 14 12 11 8 6 5 2 1 4 5 6 6 5 3 3 3 5
13 13 14 15 13 12 11 11 10 12 13 14 14 17 17 15 16 20 23 21 18 22 20 19 17 15 14 8 13 13 11 9 9 8 6 7 5 7 5 4 4 3 0 1 3
13 13 12 12 12 11 11 11 10 10 13 15 16 16 14 19 19 15 14 17 21 22 23 13 10 9 8 7 11 10 12 7 7 9 6 5 3 4 3 1 2 1 2 3 2
13 12 12 12 11 10 9 10 10 11 11 13 16 17 18 21 16 12 14 14 18 19 18 18 13 10 12 13 15 13 9 7 8 5 7 6 2 5 3 2 1 2 4 3 5
12 12 11 10 10 9 7 7 10 12 11 12 13 15 16 14 12 11 10 15 16 14 15 12 10 10 15 16 12 8 7 7 6 4 4 3 3 6 4 2 3 4 6 6 5
8 9 10 10 9 9 9 7 6 7 10 11 12 14 15 12 12 15 15 14 13 11 12 10 7 7 7 8 8 6 7 6 4 6 6 3 3 5 1 4 4 6 7 10 9
4 5 6 7 8 7 7 7 8 9 9 9 11 11 11 12 13 10 10 13 15 16 14 11 10 7 6 4 4 1 1 5 4 5 6 3 3 3 4 7 11 11 13 14 15
5 4 3 3 4 6 5 6 8 9 10 11 13 13 11 12 12 11 11 9 9 11 12 13 10 7 7 3 2 3 8 11 8 1 5 4 4 5 5 4 7 10 14 18 17
9 7 6 4 3 4 5 4 5 7 8 9 10 12 13 12 13 13 12 12 12 13 13 11 11 6 5 4 2 3 11 9 12 12 7 4 6 6 7 6 8 12 11 15 20
13 12 10 9 8 8 8 7 7 4 8 9 10 11 11 10 12 14 14 14 13 9 10 11 12 10 9 7 6 4 12 12 12 13 11 8 7 9 10 10 11 13 6 13 16
17 17 15 13 12 12 12 11 10 9 10 11 11 13 11 13 12 14 15 14 13 13 12 13 15 13 13 12 10 10 14 15 13 16 16 13 6 10 13 10 8 7 0 8 16
22 21 20 18 18 16 16 15 14 13 14 17 15 14 16 16 19 14 17 14 13 16 15 14 19 15 13 16 16 10 16 17 18 17 19 16 16 9 11 7 3 4 7 10 13
26 25 25 23 23 22 21 21 19 18 19 19 19 20 20 20 21 18 19 19 18 19 14 14 17 17 13 19 18 15 16 19 21 19 18 16 20 6 13 9 4 7 1 3 9
31 31 29 27 26 26 26 25 23 23 24 24 24 23 23 23 23 23 23 23 23 23 18 19 20 20 18 18 19 21 18 22 23 19 20 19 19 11 10 12 14 7 9 10 10
31 34 33 32 31 31 30 28 27 27 27 27 27 28 27 26 26 26 26 26 25 25 25 26 23 22 21 16 19 28 29 23 25 23 19 19 20 12 13 14 15 15 13 14 18
29 30 32 30 32 33 33 31 28 29 29 28 27 29 31 32 30 30 28 27 30 29 29 27 24 27 22 23 27 29 33 23 26 23 23 22 21 15 12 14 14 14 15 20 25
28 29 29 28 30 31 33 30 30 28 29 30 29 30 32 33 32 31 31 27 28 28 31 28 28 29 26 23 28 28 27 26 24 26 26 24 21 14 8 13 17 18 19 18 19
31 31 32 32 32 32 30 29 29 28 29 30 32 30 33 34 34 32 27 25 27 27 28 24 28 23 26 23 21 29 29 29 29 29 27 28 25 15 17 16 17 19 20 17 17
33 33 33 33 35 36 35 33 32 32 30 30 31 32 31 34 35 35 30 28 24 22 22 22 22 17 19 20 22 27 28 29 28 27 27 31 34 30 22 21 22 21 21 13 16
31 31 31 31 31 32 33 34 37 33 35 33 30 31 33 33 32 31 29 29 27 26 27 24 24 20 21 24 25 26 27 27 30 30 32 31 32 32 30 28 24 20 17 19 21
26 25 25 26 26 28 30 31 33 35 32 34 32 33 35 35 35 31 28 32 31 31 30 32 27 26 24 23 25 29 27 27 27 28 30 32 32 27 24 27 26 21 17 21 13
24 24 24 24 25 27 28 28 31 32 35 32 37 37 38 38 40 35 35 35 34 31 29 29 28 27 24 22 24 27 32 31 32 34 33 24 25 24 27 26 28 29 24 20 14
21 20 22 23 24 25 25 25 27 30 32 36 35 38 41 37 40 40 42 41 38 36 34 34 34 32 32 28 28 26 27 28 30 33 35 28 25 22 20 25 27 29 30 26 23
21 20 21 21 22 21 20 23 25 26 28 32 37 39 39 41 43 42 43 45 45 43 41 41 42 36 39 33 33 39 37 32 31 32 33 32 32 32 26 22 23 26 28 28 27
Wind_Direction
128 130 126 123 118 116 118 120 123 122 117 111 107 104 104 108 115 127 135 137 140 138 140 140 148 141 129 126 137 135 143 124 103 93 101 114 117 123 102 87 86 96 101 111 109
132 133 125 124 128 126 124 121 122 124 121 116 116 107 108 107 111 107 118 140 141 144 142 143 143 134 134 141 138 138 135 140 139 127 104 97 141 110 96 86 80 84 95 108 115
136 132 129 129 132 132 127 125 123 124 122 125 121 115 115 105 114 118 96 144 138 127 125 131 127 128 135 148 147 121 130 138 153 168 181 222 286 350 59 76 81 78 93 119 122
133 131 129 129 130 128 125 126 126 123 121 123 121 118 117 116 107 116 99 128 123 136 133 126 131 136 148 112 125 126 119 126 150 157 137 60 72 43 33 40 23 54 99 131 143
124 135 135 135 137 137 134 134 134 128 124 128 126 127 123 123 118 117 114 119 114 132 142 123 99 93 99 99 111 109 111 94 83 94 72 49 45 48 27 9 1 336 71 165 167
108 113 126 138 134 141 141 138 132 125 124 125 128 131 122 125 128 120 121 119 118 120 147 135 126 117 125 122 128 133 116 101 99 135 126 89 47 31 39 176 336 327 309 322 262
101 107 113 120 133 132 130 133 127 125 123 123 127 133 131 135 130 132 135 125 103 120 135 149 148 123 147 143 135 148 155 113 84 113 130 127 100 352 38 144 167 229 229 256 294
88 92 104 120 126 134 143 133 132 136 138 137 135 141 150 159 158 155 130 115 112 114 126 129 138 121 145 157 153 158 166 158 126 123 181 171 256 298 194 184 212 236 257 251 251
111 101 93 92 123 141 151 161 156 150 151 160 157 157 162 170 170 172 160 147 142 141 139 139 155 159 138 143 161 142 147 113 104 121 154 181 170 159 265 289 287 290 285 274 262
148 137 125 109 89 99 143 158 172 183 184 185 181 175 181 180 185 187 188 172 171 168 169 180 188 172 176 163 152 334 26 107 109 154 182 196 242 267 277 320 320 314 304 283 268
207 191 174 153 129 110 114 162 189 194 186 188 190 188 187 205 213 203 212 209 208 196 196 205 208 205 180 187 335 333 320 332 350 9 189 208 258 295 316 52 17 349 315 299 280
238 233 221 218 207 190 195 195 207 211 215 202 196 202 207 205 203 206 213 220 222 217 213 221 236 244 248 224 266 300 295 311 317 316 323 254 290 273 285 322 348 360 331 326 302
242 242 237 231 226 232 234 230 234 233 225 221 218 218 223 225 219 210 207 212 222 232 233 243 261 262 274 266 263 274 279 293 301 306 303 314 309 296 279 277 307 343 1 351 303
247 250 246 244 242 241 241 241 244 239 239 241 231 230 223 228 226 222 224 221 225 227 232 241 265 264 280 278 272 264 283 285 293 291 302 318 303 290 295 280 303 337 272 334 341
247 248 251 250 250 249 249 248 248 244 244 246 241 234 233 232 232 226 238 237 233 232 231 234 249 267 278 279 279 257 272 289 296 301 306 314 316 282 279 286 38 307 286 296 322
245 246 247 249 251 252 252 253 253 249 245 247 250 247 245 245 251 247 242 242 236 246 244 243 255 261 275 275 280 268 262 281 288 300 302 303 312 297 269 256 259 251 232 301 340
244 244 245 246 248 250 251 252 253 251 254 254 254 253 251 251 254 254 252 249 242 245 237 223 241 249 254 259 268 263 256 265 274 285 298 299 311 327 287 275 249 252 274 293 303
248 249 247 247 248 248 249 250 252 253 253 253 254 255 254 252 250 252 254 253 253 251 243 246 237 247 249 238 237 239 249 261 267 282 282 293 311 335 299 285 272 272 266 286 294
248 249 251 253 254 254 253 252 253 252 252 250 248 249 252 255 253 253 254 251 250 251 253 252 247 247 248 231 234 233 236 248 261 275 284 293 304 329 289 272 278 290 289 282 289
247 249 250 251 254 255 256 258 259 257 256 254 251 250 250 252 254 253 255 253 249 246 248 247 249 254 249 238 232 234 235 235 246 267 280 288 293 320 295 277 277 283 289 298 309
251 253 254 254 256 258 260 260 258 257 256 256 254 250 251 249 252 255 256 248 254 252 253 243 257 253 256 252 239 236 237 233 244 257 274 286 291 304 309 304 298 300 308 298 309
254 254 255 255 256 257 256 256 255 251 250 251 253 254 250 251 252 256 256 250 246 241 247 244 252 242 255 241 238 231 234 239 247 260 271 283 292 302 301 297 292 309 305 317 309
250 251 252 254 257 258 257 254 252 252 252 251 251 255 259 256 254 256 251 251 249 248 243 246 257 252 240 243 250 241 239 244 251 264 274 279 292 304 308 306 302 311 314 316 319
246 244 246 249 253 256 257 255 253 248 246 244 244 247 251 256 259 257 254 249 251 257 253 253 253 259 260 253 252 239 244 249 251 254 267 280 289 297 300 298 300 309 316 328 309
243 238 241 247 253 257 257 256 254 252 247 243 240 242 243 245 251 259 257 254 255 256 252 256 258 263 263 259 252 252 246 248 254 262 271 281 305 299 281 291 295 296 303 308 311
242 238 242 248 254 258 257 255 255 253 250 244 241 244 246 249 248 249 255 256 254 254 248 247 247 254 256 245 263 254 252 258 266 271 275 275 299 308 286 276 277 282 290 292 291
246 243 244 248 252 257 259 255 251 252 252 251 245 244 245 246 246 246 247 249 248 248 249 252 261 258 259 270 267 273 263 255 267 270 270 275 281 291 294 292 281 280 283 286 287